Location: Newark
(34.9500°N, 139.9667°E)
Time: 04:10:30
(UTC+00:00)

Tiros 1 - All Passes

Search period start: 12 December 2019 00:00
Search period end: 22 December 2019 00:00
Orbit: 630 x 664 km, 48.4° (Epoch: 11 December)

Date Brightness Start Highest point End Pass type
(mag) Time Alt. Az. Time Alt. Az. Time Alt. Az.
12 Dec - 00:13:40 10° NNW 00:16:55 18° NNE 00:20:09 10° ENE daylight
12 Dec - 01:55:24 10° NW 01:59:56 51° NNE 02:04:25 10° ESE daylight
12 Dec - 03:38:02 10° WNW 03:41:54 26° SW 03:45:44 10° S daylight
12 Dec - 17:48:58 10° S 17:52:01 17° SE 17:55:01 10° E visible
12 Dec - 19:29:01 10° WSW 19:33:46 78° NW 19:38:29 10° NE visible
12 Dec - 21:12:49 10° WNW 21:16:32 22° NNW 21:20:12 10° NNE visible
12 Dec - 22:57:18 10° NW 23:00:05 15° N 23:02:50 10° NE daylight
13 Dec - 00:39:33 10° NW 00:43:30 27° NNE 00:47:26 10° E daylight
13 Dec - 02:21:24 10° WNW 02:26:01 72° SW 02:30:37 10° SE daylight
13 Dec - 18:13:17 10° SSW 18:17:45 41° SE 18:22:11 10° ENE visible
13 Dec - 19:55:33 10° W 19:59:59 38° NNW 20:04:23 10° NE visible
13 Dec - 21:40:09 10° NW 21:43:10 17° N 21:46:12 10° NNE daylight
13 Dec - 23:23:36 10° NNW 23:26:48 18° NNE 23:30:00 10° NE daylight
14 Dec - 01:05:22 10° NW 01:09:53 48° NNE 01:14:20 10° ESE daylight
14 Dec - 02:47:54 10° WNW 02:51:55 29° SW 02:55:52 10° SSE daylight
14 Dec - 16:59:15 10° SSE 17:02:00 15° SE 17:04:45 10° E night (unlit)
14 Dec - 18:38:57 10° SW 18:43:43 85° NW 18:48:27 10° NE visible
14 Dec - 20:22:38 10° WNW 20:26:25 23° NNW 20:30:12 10° NNE visible
14 Dec - 22:07:10 10° NW 22:09:57 15° N 22:12:43 10° NE daylight
14 Dec - 23:49:31 10° NW 23:53:25 25° NNE 23:57:17 10° ENE daylight
15 Dec - 01:31:21 10° NW 01:36:01 79° SW 01:40:36 10° SE daylight
15 Dec - 03:16:12 10° WSW 03:17:34 11° SW 03:18:55 10° SW daylight
15 Dec - 17:23:20 10° SSW 17:27:44 37° SE 17:32:06 10° ENE night (unlit)
15 Dec - 19:05:24 10° W 19:09:54 41° NNW 19:14:23 10° NE visible
15 Dec - 20:49:57 10° NW 20:53:04 17° N 20:56:10 10° NNE visible
15 Dec - 22:33:33 10° NNW 22:36:43 17° N 22:39:51 10° NE daylight
16 Dec - 00:15:21 10° NW 00:19:49 44° NNE 00:24:15 10° ESE daylight
16 Dec - 01:57:47 10° WNW 02:01:54 32° SW 02:05:59 10° SSE daylight
16 Dec - 16:09:35 10° SSE 16:12:00 14° SE 16:14:24 10° E night (unlit)
16 Dec - 17:48:53 10° SW 17:53:40 89° SSE 17:58:25 10° NE visible
16 Dec - 19:32:27 10° WNW 19:36:20 24° NNW 19:40:12 10° NE visible
16 Dec - 21:17:02 10° NW 21:19:51 15° N 21:22:37 10° NE daylight
16 Dec - 22:59:30 10° NW 23:03:20 24° NNE 23:07:09 10° ENE daylight
17 Dec - 00:41:18 10° NW 00:45:58 86° SW 00:50:35 10° SE daylight
17 Dec - 02:25:37 10° WSW 02:27:35 13° SW 02:29:32 10° SSW daylight
17 Dec - 16:33:24 10° SSW 16:37:42 34° SE 16:42:00 10° ENE night (unlit)
17 Dec - 18:15:16 10° WSW 18:19:50 44° NNW 18:24:22 10° NE visible
17 Dec - 19:59:46 10° NW 20:02:58 18° N 20:06:09 10° NNE visible
17 Dec - 21:43:29 10° NNW 21:46:36 17° N 21:49:42 10° NE daylight
17 Dec - 23:25:19 10° NW 23:29:46 41° NNE 23:34:09 10° E daylight
18 Dec - 01:07:40 10° WNW 01:11:53 35° SW 01:16:05 10° SSE daylight
18 Dec - 15:20:01 10° SSE 15:22:00 12° SE 15:23:59 10° ESE night (unlit)
18 Dec - 16:58:50 10° SW 17:03:37 82° SE 17:08:23 10° NE night (unlit)
18 Dec - 18:42:16 10° WNW 18:46:14 26° NNW 18:50:12 10° NE visible
18 Dec - 20:26:53 10° NW 20:29:43 15° N 20:32:32 10° NE visible
18 Dec - 22:09:28 10° NW 22:13:15 23° NNE 22:17:00 10° ENE daylight
18 Dec - 23:51:15 10° NW 23:55:56 87° NE 00:00:34 10° SE daylight
19 Dec - 01:35:12 10° W 01:37:35 14° SW 01:39:59 10° SSW daylight
19 Dec - 15:43:28 10° SSW 15:47:41 31° SE 15:51:53 10° ENE night (unlit)
19 Dec - 17:25:09 10° WSW 17:29:46 47° NNW 17:34:21 10° NE night (unlit)
19 Dec - 19:09:34 10° NW 19:12:51 18° NNW 19:16:07 10° NNE visible
19 Dec - 20:53:24 10° NNW 20:56:30 17° N 20:59:33 10° NE visible
19 Dec - 22:35:17 10° NW 22:39:42 39° NNE 22:44:03 10° E daylight
20 Dec - 00:17:33 10° WNW 00:21:53 39° SW 00:26:10 10° SSE daylight
20 Dec - 14:30:35 10° SE 14:32:00 11° SE 14:33:23 10° ESE night (unlit)
20 Dec - 16:08:48 10° SW 16:13:34 75° SE 16:18:21 10° NE night (unlit)
20 Dec - 17:52:04 10° W 17:56:08 27° NNW 18:00:11 10° NE visible
20 Dec - 19:36:44 10° NW 19:39:36 16° N 19:42:26 10° NE visible
20 Dec - 21:19:25 10° NNW 21:23:09 23° NNE 21:26:51 10° ENE daylight
20 Dec - 23:01:12 10° NW 23:05:55 81° NE 23:10:32 10° SE daylight
21 Dec - 00:44:51 10° W 00:47:36 16° SW 00:50:20 10° SSW daylight
21 Dec - 14:53:33 10° SSW 14:57:40 29° SE 15:01:45 10° ENE night (unlit)
21 Dec - 16:35:02 10° WSW 16:39:41 51° NNW 16:44:20 10° NE night (unlit)
21 Dec - 18:19:22 10° WNW 18:22:44 19° NNW 18:26:05 10° NNE visible
21 Dec - 20:03:20 10° NNW 20:06:23 17° N 20:09:24 10° NE visible
21 Dec - 21:45:16 10° NW 21:49:38 37° NNE 21:53:57 10° E daylight
21 Dec - 23:27:27 10° WNW 23:31:52 43° SW 23:36:14 10° SSE daylight
